AAL1565 KDFW-KCMH

Flight info

Callsign AAL1565
Flight time 1h 44m
Altitude 35000
Route ZACHH4 BSKAT LITTR Q68 LAJUG GETTA JAKTZ2
Aircraft B738/M-SDE2E3FGHIRWXY/LB1

Departure

Time 2026-05-08 23:09
Airport Dallas Fort Worth International Airport (KDFW)

Arrival

Time 2026-05-09 00:54
Airport John Glenn Columbus International Airport (KCMH)
Time Latitude Longitude Altitude Speed Heading
2026-05-08 22:54 32.90424 -97.03497 586 ft 0 kts 290°
2026-05-08 23:02 32.90423 -97.03496 595 ft 1 kts 290°
2026-05-08 23:03 32.90415 -97.03469 586 ft 4 kts 289°
2026-05-08 23:03 32.90405 -97.03440 586 ft 4 kts 301°
2026-05-08 23:03 32.90388 -97.03416 585 ft 4 kts 330°
2026-05-08 23:03 32.90370 -97.03409 585 ft 0 kts
2026-05-08 23:05 32.90396 -97.03408 585 ft 9 kts
2026-05-08 23:06 32.90457 -97.03379 585 ft 10 kts 59°
2026-05-08 23:06 32.90463 -97.03294 583 ft 12 kts 89°
2026-05-08 23:06 32.90518 -97.03192 576 ft 19 kts 11°
2026-05-08 23:06 32.90651 -97.03189 577 ft 19 kts 360°
2026-05-08 23:07 32.90779 -97.03189 579 ft 18 kts 360°
2026-05-08 23:07 32.90921 -97.03188 581 ft 23 kts 360°
2026-05-08 23:07 32.91095 -97.03187 579 ft 27 kts
2026-05-08 23:07 32.91288 -97.03185 580 ft 28 kts
2026-05-08 23:08 32.91414 -97.03074 577 ft 23 kts 90°
2026-05-08 23:08 32.91367 -97.02992 578 ft 12 kts 174°
2026-05-08 23:08 32.91061 -97.02990 577 ft 78 kts 180°
2026-05-08 23:08 32.90299 -97.02996 576 ft 138 kts 180°
2026-05-08 23:09 32.89203 -97.03027 833 ft 167 kts 182°
2026-05-08 23:09 32.88045 -97.03041 1667 ft 164 kts 178°
2026-05-08 23:09 32.86909 -97.03015 2415 ft 163 kts 179°
2026-05-08 23:09 32.85692 -97.02976 2745 ft 190 kts 175°
2026-05-08 23:10 32.84352 -97.02518 2963 ft 213 kts 157°
2026-05-08 23:10 32.82924 -97.01795 3230 ft 230 kts 159°
2026-05-08 23:10 32.81374 -97.01033 3467 ft 252 kts 160°
2026-05-08 23:10 32.79783 -97.00030 3987 ft 268 kts 142°
2026-05-08 23:11 32.78524 -96.98366 4683 ft 277 kts 118°
2026-05-08 23:11 32.78077 -96.96117 5270 ft 288 kts 88°
2026-05-08 23:11 32.78484 -96.93784 5916 ft 293 kts 70°
2026-05-08 23:11 32.79241 -96.91509 6567 ft 299 kts 66°
2026-05-08 23:12 32.80080 -96.89219 7227 ft 305 kts 65°
2026-05-08 23:12 32.80945 -96.86888 7881 ft 312 kts 65°
2026-05-08 23:12 32.81820 -96.84509 8562 ft 317 kts 65°
2026-05-08 23:12 32.82701 -96.82083 9158 ft 323 kts 65°
2026-05-08 23:13 32.83592 -96.79602 9766 ft 329 kts 65°
2026-05-08 23:13 32.84492 -96.77076 10355 ft 336 kts 65°
2026-05-08 23:13 32.85431 -96.74414 10536 ft 361 kts 66°
2026-05-08 23:13 32.86408 -96.71575 10689 ft 381 kts 66°
2026-05-08 23:14 32.87451 -96.68620 11021 ft 392 kts 65°
2026-05-08 23:14 32.88517 -96.65612 11575 ft 396 kts 66°
2026-05-08 23:14 32.89586 -96.62585 12218 ft 398 kts 66°
2026-05-08 23:14 32.90659 -96.59536 12887 ft 401 kts 66°
2026-05-08 23:15 32.91721 -96.56505 13526 ft 404 kts 66°
2026-05-08 23:15 32.92805 -96.53409 14132 ft 407 kts 66°
2026-05-08 23:15 32.93896 -96.50287 14730 ft 410 kts 66°
2026-05-08 23:15 32.94993 -96.47143 15346 ft 413 kts 66°
2026-05-08 23:16 32.96099 -96.43970 15929 ft 417 kts 65°
2026-05-08 23:16 32.97216 -96.40764 16505 ft 421 kts 65°
2026-05-08 23:16 32.98340 -96.37533 17109 ft 424 kts 65°
2026-05-08 23:16 32.99472 -96.34280 17702 ft 427 kts 65°
2026-05-08 23:17 33.00618 -96.30999 18257 ft 431 kts 65°
2026-05-08 23:17 33.01790 -96.27691 18735 ft 435 kts 64°
2026-05-08 23:17 33.02976 -96.24362 19243 ft 438 kts 64°
2026-05-08 23:17 33.04169 -96.21012 19749 ft 441 kts 64°
2026-05-08 23:18 33.05368 -96.17636 20244 ft 444 kts 64°
2026-05-08 23:18 33.06574 -96.14233 20740 ft 447 kts 64°
2026-05-08 23:18 33.07786 -96.10805 21226 ft 450 kts 64°
2026-05-08 23:18 33.09005 -96.07350 21664 ft 455 kts 65°
2026-05-08 23:19 33.10244 -96.03839 21912 ft 464 kts 65°
2026-05-08 23:19 33.11497 -96.00281 22369 ft 466 kts 65°
2026-05-08 23:19 33.12754 -95.96707 22890 ft 468 kts 65°
2026-05-08 23:19 33.14012 -95.93122 23329 ft 471 kts 65°
2026-05-08 23:20 33.15283 -95.89503 23685 ft 474 kts 65°
2026-05-08 23:20 33.16561 -95.85860 24016 ft 478 kts 65°
2026-05-08 23:20 33.17849 -95.82181 24347 ft 482 kts 65°
2026-05-08 23:20 33.19142 -95.78481 24675 ft 485 kts 65°
2026-05-08 23:21 33.20443 -95.74749 24999 ft 489 kts 65°
2026-05-08 23:21 33.21751 -95.70988 25336 ft 492 kts 65°
2026-05-08 23:21 33.23070 -95.67194 25568 ft 498 kts 65°
2026-05-08 23:21 33.24401 -95.63360 25840 ft 502 kts 65°
2026-05-08 23:22 33.25737 -95.59504 26181 ft 504 kts 65°
2026-05-08 23:22 33.27063 -95.55674 26513 ft 506 kts 66°
2026-05-08 23:22 33.28429 -95.51725 26808 ft 509 kts 66°
2026-05-08 23:22 33.29786 -95.47798 27095 ft 513 kts 66°
2026-05-08 23:23 33.31131 -95.43900 27368 ft 516 kts 66°
2026-05-08 23:23 33.32503 -95.39919 27648 ft 519 kts 66°
2026-05-08 23:23 33.33880 -95.35920 27923 ft 522 kts 66°
2026-05-08 23:23 33.35265 -95.31892 28177 ft 525 kts 66°
2026-05-08 23:24 33.36659 -95.27831 28312 ft 531 kts 66°
2026-05-08 23:24 33.38065 -95.23731 28559 ft 534 kts 66°
2026-05-08 23:24 33.39473 -95.19619 28870 ft 535 kts 66°
2026-05-08 23:24 33.40886 -95.15488 29157 ft 537 kts 66°
2026-05-08 23:25 33.42301 -95.11343 29466 ft 539 kts 66°
2026-05-08 23:25 33.43717 -95.07193 29820 ft 539 kts 67°
2026-05-08 23:25 33.45132 -95.03041 30160 ft 538 kts 67°
2026-05-08 23:25 33.46545 -94.98887 30480 ft 538 kts 67°
2026-05-08 23:26 33.47957 -94.94731 30760 ft 539 kts 67°
2026-05-08 23:26 33.49372 -94.90563 30980 ft 542 kts 67°
2026-05-08 23:26 33.50790 -94.86378 31215 ft 543 kts 67°
2026-05-08 23:26 33.52212 -94.82178 31510 ft 543 kts 67°
2026-05-08 23:27 33.53629 -94.77988 31821 ft 543 kts 67°
2026-05-08 23:27 33.55044 -94.73795 32135 ft 542 kts 68°
2026-05-08 23:27 33.56458 -94.69601 32409 ft 543 kts 68°
2026-05-08 23:27 33.57871 -94.65403 32664 ft 543 kts 68°
2026-05-08 23:28 33.59285 -94.61197 32934 ft 544 kts 68°
2026-05-08 23:28 33.60698 -94.56990 33241 ft 544 kts 68°
2026-05-08 23:28 33.62109 -94.52782 33474 ft 545 kts 68°
2026-05-08 23:28 33.63525 -94.48554 33672 ft 547 kts 68°
2026-05-08 23:29 33.64943 -94.44314 33920 ft 547 kts 68°
2026-05-08 23:29 33.66359 -94.40076 34160 ft 547 kts 68°
2026-05-08 23:29 33.67772 -94.35836 34371 ft 548 kts 68°
2026-05-08 23:29 33.69187 -94.31589 34550 ft 549 kts 68°
2026-05-08 23:30 33.70605 -94.27328 34747 ft 549 kts 68°
2026-05-08 23:30 33.72124 -94.23116 34880 ft 551 kts 61°
2026-05-08 23:30 33.75906 -94.15078 34875 ft 553 kts 57°
2026-05-08 23:31 33.79882 -94.07116 34898 ft 559 kts 57°
2026-05-08 23:31 33.83814 -93.99041 34895 ft 566 kts 58°
2026-05-08 23:32 33.87762 -93.90748 34890 ft 568 kts 58°
2026-05-08 23:32 33.91679 -93.82476 34902 ft 569 kts 58°
2026-05-08 23:33 33.95574 -93.74257 34884 ft 569 kts 58°
2026-05-08 23:33 33.99490 -93.65984 34888 ft 568 kts 58°
2026-05-08 23:34 34.03377 -93.57723 34889 ft 567 kts 59°
2026-05-08 23:34 34.07157 -93.49374 34891 ft 567 kts 60°
2026-05-08 23:35 34.10887 -93.40995 34898 ft 566 kts 60°
2026-05-08 23:35 34.14616 -93.32630 34906 ft 566 kts 60°
2026-05-08 23:36 34.18353 -93.24272 34952 ft 566 kts 59°
2026-05-08 23:36 34.22090 -93.15907 34918 ft 565 kts 59°
2026-05-08 23:37 34.25818 -93.07543 34912 ft 565 kts 59°
2026-05-08 23:37 34.29535 -92.99178 34905 ft 565 kts 59°
2026-05-08 23:38 34.33244 -92.90809 34909 ft 565 kts 59°
2026-05-08 23:38 34.36949 -92.82429 34910 ft 565 kts 60°
2026-05-08 23:39 34.40649 -92.74039 34902 ft 565 kts 60°
2026-05-08 23:39 34.44347 -92.65636 34912 ft 566 kts 60°
2026-05-08 23:40 34.48047 -92.57206 34914 ft 567 kts 60°
2026-05-08 23:40 34.51746 -92.48759 34914 ft 568 kts 60°
2026-05-08 23:41 34.55443 -92.40294 34910 ft 568 kts 60°
2026-05-08 23:41 34.59139 -92.31809 34906 ft 569 kts 60°
2026-05-08 23:42 34.62830 -92.23317 34907 ft 569 kts 60°
2026-05-08 23:42 34.66519 -92.14807 34910 ft 569 kts 60°
2026-05-08 23:43 34.70203 -92.06288 34909 ft 570 kts 60°
2026-05-08 23:43 34.73883 -91.97758 34914 ft 571 kts 60°
2026-05-08 23:44 34.77564 -91.89202 34909 ft 571 kts 60°
2026-05-08 23:44 34.81214 -91.80698 34915 ft 571 kts 60°
2026-05-08 23:45 34.84883 -91.72130 34916 ft 571 kts 60°
2026-05-08 23:45 34.88545 -91.63553 34918 ft 571 kts 60°
2026-05-08 23:46 34.92201 -91.54970 34915 ft 571 kts 60°
2026-05-08 23:46 34.95852 -91.46376 34918 ft 571 kts 60°
2026-05-08 23:47 34.99498 -91.37773 34987 ft 571 kts 60°
2026-05-08 23:47 35.03147 -91.29142 34929 ft 572 kts 60°
2026-05-08 23:48 35.06786 -91.20510 34927 ft 572 kts 60°
2026-05-08 23:48 35.10422 -91.11865 34908 ft 572 kts 60°
2026-05-08 23:49 35.14052 -91.03213 34919 ft 572 kts 60°
2026-05-08 23:49 35.17675 -90.94552 34929 ft 573 kts 60°
2026-05-08 23:50 35.21296 -90.85874 34923 ft 573 kts 61°
2026-05-08 23:50 35.24916 -90.77177 34989 ft 574 kts 60°
2026-05-08 23:51 35.28535 -90.68458 34926 ft 575 kts 61°
2026-05-08 23:51 35.31541 -90.61198 34927 ft 575 kts 61°
2026-05-08 23:52 35.35152 -90.52459 34910 ft 575 kts 61°
2026-05-08 23:52 35.38758 -90.43707 34911 ft 575 kts 61°
2026-05-08 23:53 35.42357 -90.34950 34903 ft 575 kts 61°
2026-05-08 23:53 35.45950 -90.26183 34912 ft 575 kts 61°
2026-05-08 23:54 35.49537 -90.17407 34912 ft 575 kts 61°
2026-05-08 23:55 35.54913 -90.04213 34924 ft 577 kts 61°
2026-05-08 23:55 35.58492 -89.95397 34909 ft 577 kts 61°
2026-05-08 23:56 35.62063 -89.86580 34919 ft 576 kts 61°
2026-05-08 23:56 35.65629 -89.77750 34915 ft 576 kts 61°
2026-05-08 23:57 35.69184 -89.68924 34925 ft 576 kts 61°
2026-05-08 23:57 35.72733 -89.60088 34918 ft 576 kts 62°
2026-05-08 23:58 35.76277 -89.51240 34970 ft 576 kts 61°
2026-05-08 23:58 35.79821 -89.42370 34926 ft 578 kts 62°
2026-05-08 23:59 35.83359 -89.33491 34922 ft 577 kts 62°
2026-05-08 23:59 35.86892 -89.24599 34927 ft 578 kts 62°
2026-05-09 00:00 35.90418 -89.15699 34923 ft 577 kts 62°
2026-05-09 00:00 35.93936 -89.06797 34927 ft 577 kts 62°
2026-05-09 00:01 35.97445 -88.97891 34926 ft 577 kts 62°
2026-05-09 00:01 36.00950 -88.88972 34921 ft 577 kts 62°
2026-05-09 00:02 36.04447 -88.80048 34918 ft 577 kts 62°
2026-05-09 00:02 36.07935 -88.71123 34916 ft 576 kts 62°
2026-05-09 00:03 36.11391 -88.62254 34918 ft 576 kts 62°
2026-05-09 00:03 36.14886 -88.53259 34915 ft 576 kts 62°
2026-05-09 00:04 36.18329 -88.44376 34902 ft 577 kts 62°
2026-05-09 00:04 36.21792 -88.35416 34930 ft 577 kts 62°
2026-05-09 00:05 36.25250 -88.26442 34967 ft 578 kts 62°
2026-05-09 00:05 36.28712 -88.17433 34928 ft 579 kts 62°
2026-05-09 00:06 36.32167 -88.08416 34935 ft 579 kts 62°
2026-05-09 00:06 36.35619 -87.99380 34939 ft 580 kts 63°
2026-05-09 00:07 36.39064 -87.90337 34947 ft 580 kts 63°
2026-05-09 00:07 36.42507 -87.81274 34949 ft 580 kts 63°
2026-05-09 00:08 36.45943 -87.72204 34955 ft 580 kts 63°
2026-05-09 00:08 36.49374 -87.63120 34997 ft 581 kts 63°
2026-05-09 00:09 36.52807 -87.54002 34958 ft 583 kts 63°
2026-05-09 00:09 36.56214 -87.44929 34947 ft 583 kts 63°
2026-05-09 00:10 36.59709 -87.35824 34914 ft 581 kts 57°
2026-05-09 00:10 36.64391 -87.27764 34917 ft 569 kts 39°
2026-05-09 00:11 36.70168 -87.21169 34933 ft 563 kts 33°
2026-05-09 00:11 36.76033 -87.14680 34932 ft 565 kts 34°
2026-05-09 00:12 36.81864 -87.08101 34919 ft 565 kts 34°
2026-05-09 00:12 36.87660 -87.01468 34926 ft 565 kts 35°
2026-05-09 00:13 36.93445 -86.94820 34927 ft 565 kts 35°
2026-05-09 00:13 36.99231 -86.88166 34932 ft 565 kts 34°
2026-05-09 00:14 37.05015 -86.81508 34927 ft 565 kts 34°
2026-05-09 00:14 37.10788 -86.74850 34928 ft 564 kts 35°
2026-05-09 00:15 37.16559 -86.68177 34928 ft 564 kts 34°
2026-05-09 00:15 37.22319 -86.61504 34948 ft 563 kts 35°
2026-05-09 00:16 37.28062 -86.54830 34911 ft 562 kts 35°
2026-05-09 00:16 37.33789 -86.48162 34922 ft 561 kts 34°
2026-05-09 00:17 37.39488 -86.41572 34913 ft 558 kts 33°
2026-05-09 00:17 37.45424 -86.35336 34952 ft 554 kts 30°
2026-05-09 00:18 37.51427 -86.29269 34923 ft 553 kts 30°
2026-05-09 00:18 37.57391 -86.23166 34917 ft 552 kts 31°
2026-05-09 00:19 37.63317 -86.17007 34916 ft 552 kts 31°
2026-05-09 00:19 37.69227 -86.10825 34928 ft 551 kts 31°
2026-05-09 00:20 37.75122 -86.04648 34925 ft 550 kts 31°
2026-05-09 00:20 37.81005 -85.98476 34906 ft 549 kts 31°
2026-05-09 00:21 37.86876 -85.92307 34905 ft 548 kts 31°
2026-05-09 00:21 37.92732 -85.86140 34927 ft 547 kts 31°
2026-05-09 00:22 37.98575 -85.79975 34910 ft 545 kts 31°
2026-05-09 00:22 38.04394 -85.73820 34907 ft 544 kts 31°
2026-05-09 00:23 38.10190 -85.67675 34917 ft 542 kts 31°
2026-05-09 00:23 38.15975 -85.61532 34917 ft 542 kts 31°
2026-05-09 00:24 38.21709 -85.55429 34913 ft 541 kts 32°
2026-05-09 00:24 38.27471 -85.49283 34910 ft 540 kts 32°
2026-05-09 00:25 38.33222 -85.43135 34910 ft 540 kts 32°
2026-05-09 00:25 38.38976 -85.36972 34895 ft 540 kts 31°
2026-05-09 00:26 38.44732 -85.30794 34894 ft 541 kts 32°
2026-05-09 00:26 38.50491 -85.24598 34898 ft 542 kts 32°
2026-05-09 00:27 38.56259 -85.18379 34880 ft 544 kts 32°
2026-05-09 00:27 38.59172 -85.15238 34261 ft 550 kts 32°
2026-05-09 00:27 38.62078 -85.12095 33593 ft 546 kts 32°
2026-05-09 00:27 38.64984 -85.08947 32763 ft 546 kts 33°
2026-05-09 00:28 38.67864 -85.05820 32166 ft 540 kts 33°
2026-05-09 00:28 38.70735 -85.02702 31247 ft 542 kts 33°
2026-05-09 00:28 38.73594 -84.99595 30627 ft 536 kts 33°
2026-05-09 00:28 38.76431 -84.96509 29663 ft 536 kts 34°
2026-05-09 00:29 38.79266 -84.93426 29005 ft 530 kts 34°
2026-05-09 00:29 38.82040 -84.90399 28369 ft 522 kts 34°
2026-05-09 00:29 38.84796 -84.87392 27714 ft 517 kts 34°
2026-05-09 00:29 38.87517 -84.84420 27101 ft 510 kts 34°
2026-05-09 00:30 38.90203 -84.81485 26513 ft 504 kts 34°
2026-05-09 00:30 38.92858 -84.78582 25945 ft 498 kts 34°
2026-05-09 00:30 38.95478 -84.75714 25369 ft 492 kts 34°
2026-05-09 00:30 38.98070 -84.72875 24819 ft 487 kts 35°
2026-05-09 00:31 39.00631 -84.70067 24278 ft 481 kts 35°
2026-05-09 00:31 39.03065 -84.67123 23786 ft 481 kts 45°
2026-05-09 00:31 39.05088 -84.63732 23492 ft 474 kts 50°
2026-05-09 00:31 39.06968 -84.60275 23110 ft 467 kts 51°
2026-05-09 00:32 39.08790 -84.56862 22778 ft 461 kts 51°
2026-05-09 00:32 39.10629 -84.53458 22477 ft 466 kts 51°
2026-05-09 00:32 39.12501 -84.50051 22167 ft 468 kts 50°
2026-05-09 00:32 39.14391 -84.46652 21850 ft 463 kts 50°
2026-05-09 00:33 39.16239 -84.43348 21546 ft 459 kts 50°
2026-05-09 00:33 39.18103 -84.40026 21246 ft 455 kts 50°
2026-05-09 00:33 39.19952 -84.36729 20933 ft 452 kts 50°
2026-05-09 00:33 39.21788 -84.33451 20657 ft 450 kts 49°
2026-05-09 00:34 39.23615 -84.30186 20363 ft 449 kts 49°
2026-05-09 00:34 39.25437 -84.26921 20060 ft 448 kts 49°
2026-05-09 00:34 39.27254 -84.23663 19765 ft 447 kts 49°
2026-05-09 00:34 39.29062 -84.20414 19481 ft 444 kts 49°
2026-05-09 00:35 39.30719 -84.17050 19176 ft 445 kts 57°
2026-05-09 00:35 39.32109 -84.13480 18893 ft 444 kts 60°
2026-05-09 00:35 39.33404 -84.09866 18607 ft 442 kts 61°
2026-05-09 00:35 39.34692 -84.06285 18315 ft 440 kts 60°
2026-05-09 00:36 39.36009 -84.02732 18015 ft 438 kts 59°
2026-05-09 00:36 39.37348 -83.99215 17687 ft 434 kts 59°
2026-05-09 00:36 39.38687 -83.95731 17419 ft 432 kts 59°
2026-05-09 00:36 39.40023 -83.92254 17202 ft 432 kts 59°
2026-05-09 00:37 39.41357 -83.88771 16909 ft 432 kts 59°
2026-05-09 00:37 39.42686 -83.85292 16647 ft 429 kts 59°
2026-05-09 00:37 39.44004 -83.81832 16356 ft 428 kts 59°
2026-05-09 00:37 39.45316 -83.78387 16068 ft 426 kts 59°
2026-05-09 00:38 39.46623 -83.74953 15790 ft 424 kts 59°
2026-05-09 00:38 39.47922 -83.71535 15510 ft 422 kts 59°
2026-05-09 00:38 39.49215 -83.68132 15218 ft 421 kts 59°
2026-05-09 00:38 39.50502 -83.64739 14946 ft 419 kts 59°
2026-05-09 00:39 39.51784 -83.61353 14600 ft 419 kts 59°
2026-05-09 00:39 39.53063 -83.57973 14256 ft 417 kts 59°
2026-05-09 00:39 39.53907 -83.55740 14030 ft 416 kts 59°
2026-05-09 00:39 39.55584 -83.51297 13552 ft 413 kts 59°
2026-05-09 00:40 39.56433 -83.49047 13298 ft 410 kts 60°
2026-05-09 00:40 39.58082 -83.44669 12824 ft 406 kts 60°
2026-05-09 00:40 39.58991 -83.42517 12580 ft 400 kts 51°
2026-05-09 00:41 39.63672 -83.37249 11890 ft 379 kts 32°
2026-05-09 00:41 39.65084 -83.35858 11665 ft 375 kts 32°
2026-05-09 00:41 39.67131 -83.33813 11350 ft 368 kts 32°
2026-05-09 00:41 39.69132 -83.31789 11042 ft 360 kts 33°
2026-05-09 00:42 39.71069 -83.29818 10733 ft 348 kts 33°
2026-05-09 00:42 39.72816 -83.27712 10432 ft 342 kts 49°
2026-05-09 00:42 39.74105 -83.25173 10197 ft 331 kts 55°
2026-05-09 00:42 39.75317 -83.22677 9942 ft 321 kts 54°
2026-05-09 00:43 39.76511 -83.20280 9688 ft 316 kts 53°
2026-05-09 00:43 39.77704 -83.17926 9410 ft 314 kts 53°
2026-05-09 00:43 39.78920 -83.15539 9121 ft 311 kts 54°
2026-05-09 00:43 39.80121 -83.13217 8867 ft 308 kts 54°
2026-05-09 00:44 39.81300 -83.10954 8601 ft 305 kts 54°
2026-05-09 00:44 39.82482 -83.08680 8365 ft 302 kts 54°
2026-05-09 00:44 39.83654 -83.06421 8110 ft 301 kts 55°
2026-05-09 00:44 39.84824 -83.04158 7868 ft 301 kts 55°
2026-05-09 00:45 39.85991 -83.01895 7604 ft 301 kts 56°
2026-05-09 00:45 39.87158 -82.99633 7361 ft 300 kts 56°
2026-05-09 00:45 39.88321 -82.97377 7118 ft 300 kts 56°
2026-05-09 00:45 39.89481 -82.95126 6866 ft 298 kts 56°
2026-05-09 00:46 39.90461 -82.92775 6587 ft 295 kts 77°
2026-05-09 00:46 39.90647 -82.90169 6381 ft 286 kts 96°
2026-05-09 00:46 39.90512 -82.87604 6124 ft 283 kts 98°
2026-05-09 00:46 39.90341 -82.85085 6007 ft 274 kts 100°
2026-05-09 00:47 39.90131 -82.82668 5975 ft 263 kts 102°
2026-05-09 00:47 39.89892 -82.80341 5756 ft 260 kts 103°
2026-05-09 00:47 39.89634 -82.78001 5423 ft 262 kts 102°
2026-05-09 00:47 39.89389 -82.75639 5121 ft 264 kts 101°
2026-05-09 00:48 39.89163 -82.73285 4845 ft 260 kts 100°
2026-05-09 00:48 39.88969 -82.70965 4506 ft 256 kts 99°
2026-05-09 00:48 39.89023 -82.68657 4136 ft 258 kts 75°
2026-05-09 00:48 39.89902 -82.66707 4005 ft 245 kts 41°
2026-05-09 00:49 39.91361 -82.65675 3998 ft 238 kts
2026-05-09 00:49 39.92987 -82.65319 4003 ft 237 kts
2026-05-09 00:49 39.94622 -82.65042 3994 ft 237 kts
2026-05-09 00:49 39.96249 -82.64919 3970 ft 231 kts 345°
2026-05-09 00:50 39.97577 -82.65843 3982 ft 212 kts 303°
2026-05-09 00:50 39.98050 -82.67557 3935 ft 204 kts 272°
2026-05-09 00:50 39.98168 -82.69470 3535 ft 212 kts 271°
2026-05-09 00:50 39.98280 -82.71368 3224 ft 206 kts 271°
2026-05-09 00:51 39.98380 -82.73205 2937 ft 200 kts 272°
2026-05-09 00:51 39.98477 -82.74980 2675 ft 193 kts 272°
2026-05-09 00:51 39.98571 -82.76694 2419 ft 184 kts 272°
2026-05-09 00:51 39.98660 -82.78307 2199 ft 175 kts 273°
2026-05-09 00:52 39.98746 -82.79879 1959 ft 174 kts 273°
2026-05-09 00:52 39.98833 -82.81423 1748 ft 163 kts 274°
2026-05-09 00:52 39.98911 -82.82833 1510 ft 153 kts 273°
2026-05-09 00:52 39.98987 -82.84195 1325 ft 150 kts 273°
2026-05-09 00:53 39.99061 -82.85546 1150 ft 149 kts 273°
2026-05-09 00:53 39.99140 -82.86892 932 ft 149 kts 273°
2026-05-09 00:53 39.99209 -82.88199 824 ft 134 kts 275°
2026-05-09 00:53 39.99270 -82.89214 824 ft 86 kts 275°
2026-05-09 00:54 39.99359 -82.89601 821 ft 18 kts 304°
2026-05-09 00:54 39.99401 -82.89680 822 ft 0 kts 305°
2026-05-09 00:55 39.99424 -82.89724 824 ft 15 kts 304°
2026-05-09 00:55 39.99475 -82.89847 824 ft 15 kts 294°
2026-05-09 00:56 39.99566 -82.89895 824 ft 16 kts 22°